Time,TemperatureF,DewpointF,PressureIn,WindDirection,WindDirectionDegrees,WindSpeedMPH,WindSpeedGustMPH,Humidity,HourlyPrecipIn,Conditions,Clouds,dailyrainin,SolarRadiationWatts/m^2,SoftwareType,DateUTC
2013-06-23 00:00:00,66.4,64.9,30.22,South,188,3.0,8.0,95,0.00,,,0.00,0.0,meteohub,2013-06-23 04:00:00,
2013-06-23 00:01:00,66.4,64.9,30.22,SW,222,2.0,8.0,95,0.00,,,0.00,0.0,meteohub,2013-06-23 04:01:00,
2013-06-23 00:02:00,66.4,64.9,30.22,SW,227,1.0,8.0,95,0.00,,,0.00,0.0,meteohub,2013-06-23 04:02:00,
2013-06-23 00:07:00,66.4,64.9,30.22,WSW,256,2.0,8.0,95,0.00,,,0.00,0.0,meteohub,2013-06-23 04:07:00,
2013-06-23 00:12:00,66.4,64.9,30.22,SSW,199,0.0,10.0,95,0.00,,,0.00,0.0,meteohub,2013-06-23 04:12:00,
2013-06-23 00:17:00,66.2,64.8,30.22,ESE,120,0.0,10.0,95,0.00,,,0.00,0.0,meteohub,2013-06-23 04:17:00,
2013-06-23 00:22:00,66.2,64.8,30.22,SW,232,3.0,9.0,95,0.00,,,0.00,0.0,meteohub,2013-06-23 04:22:00,
2013-06-23 00:27:00,66.0,64.6,30.22,SW,223,1.0,8.0,95,0.00,,,0.00,0.0,meteohub,2013-06-23 04:27:00,
2013-06-23 00:32:00,66.0,64.6,30.22,West,259,1.0,7.0,95,0.00,,,0.00,0.0,meteohub,2013-06-23 04:32:00,
2013-06-23 00:37:00,66.0,64.6,30.22,SSE,151,3.0,6.0,95,0.00,,,0.00,0.0,meteohub,2013-06-23 04:37:00,
2013-06-23 00:42:00,65.8,64.4,30.22,WSW,238,3.0,7.0,95,0.00,,,0.00,0.0,meteohub,2013-06-23 04:42:00,
2013-06-23 00:47:00,65.8,64.0,30.23,WSW,255,1.0,7.0,94,0.00,,,0.00,0.0,meteohub,2013-06-23 04:47:00,
2013-06-23 00:52:00,65.8,64.0,30.22,West,267,4.0,6.0,94,0.00,,,0.00,0.0,meteohub,2013-06-23 04:52:00,
2013-06-23 00:58:00,65.7,63.9,30.22,SW,214,1.0,7.0,94,0.00,,,0.00,0.0,meteohub,2013-06-23 04:58:00,
2013-06-23 01:03:00,65.7,63.9,30.22,SW,236,1.0,7.0,94,0.00,,,0.00,0.0,meteohub,2013-06-23 05:03:00,
2013-06-23 01:08:00,65.7,63.9,30.23,SW,225,1.0,7.0,94,0.00,,,0.00,0.0,meteohub,2013-06-23 05:08:00,
2013-06-23 01:13:00,65.7,63.5,30.23,SW,222,0.0,4.0,93,0.00,,,0.00,0.0,meteohub,2013-06-23 05:13:00,
2013-06-23 01:18:00,65.7,63.5,30.23,SW,222,0.0,4.0,93,0.00,,,0.00,0.0,meteohub,2013-06-23 05:18:00,
2013-06-23 01:23:00,65.5,63.7,30.23,SW,236,0.0,4.0,94,0.00,,,0.00,0.0,meteohub,2013-06-23 05:23:00,
2013-06-23 01:28:00,65.5,63.7,30.23,SW,236,0.0,1.0,94,0.00,,,0.00,0.0,meteohub,2013-06-23 05:28:00,
2013-06-23 01:33:00,65.5,63.7,30.23,SW,232,0.0,1.0,94,0.00,,,0.00,0.0,meteohub,2013-06-23 05:33:00,
2013-06-23 01:38:00,65.5,63.7,30.22,SW,232,0.0,1.0,94,0.00,,,0.00,0.0,meteohub,2013-06-23 05:38:00,
2013-06-23 01:43:00,65.3,63.5,30.22,SW,232,0.0,1.0,94,0.00,,,0.00,0.0,meteohub,2013-06-23 05:43:00,
2013-06-23 01:48:00,65.1,63.3,30.22,WSW,237,0.0,1.0,94,0.00,,,0.00,0.0,meteohub,2013-06-23 05:48:00,
2013-06-23 01:53:00,65.1,63.3,30.22,South,185,0.0,3.0,94,0.00,,,0.00,0.0,meteohub,2013-06-23 05:53:00,
2013-06-23 01:59:00,64.9,63.1,30.22,South,185,0.0,3.0,94,0.00,,,0.00,0.0,meteohub,2013-06-23 05:59:00,
2013-06-23 02:01:00,64.9,63.1,30.22,South,185,0.0,3.0,94,0.00,,,0.00,0.0,meteohub,2013-06-23 06:01:00,
2013-06-23 02:06:00,64.9,62.8,30.22,South,185,0.0,1.0,93,0.00,,,0.00,0.0,meteohub,2013-06-23 06:06:00,
2013-06-23 02:12:00,64.8,63.0,30.22,South,185,0.0,1.0,94,0.00,,,0.00,0.0,meteohub,2013-06-23 06:12:00,
2013-06-23 02:17:00,64.8,62.6,30.22,South,185,0.0,1.0,93,0.00,,,0.00,0.0,meteohub,2013-06-23 06:17:00,
2013-06-23 02:22:00,64.8,62.6,30.22,South,185,0.0,1.0,93,0.00,,,0.00,0.0,meteohub,2013-06-23 06:22:00,
2013-06-23 02:27:00,64.6,62.4,30.22,South,185,0.0,1.0,93,0.00,,,0.00,0.0,meteohub,2013-06-23 06:27:00,
2013-06-23 02:32:00,64.4,62.4,30.21,South,185,0.0,0.0,93,0.00,,,0.00,0.0,meteohub,2013-06-23 06:32:00,
2013-06-23 02:37:00,64.4,62.6,30.21,South,185,0.0,0.0,94,0.00,,,0.00,0.0,meteohub,2013-06-23 06:37:00,
2013-06-23 02:42:00,64.2,62.4,30.21,South,185,0.0,1.0,94,0.00,,,0.00,0.0,meteohub,2013-06-23 06:42:00,
2013-06-23 02:47:00,64.2,62.4,30.22,South,185,0.0,1.0,94,0.00,,,0.00,0.0,meteohub,2013-06-23 06:47:00,
2013-06-23 02:52:00,64.2,62.4,30.21,South,185,0.0,0.0,94,0.00,,,0.00,0.0,meteohub,2013-06-23 06:52:00,
2013-06-23 02:57:00,64.2,62.4,30.21,South,176,0.0,1.0,94,0.00,,,0.00,0.0,meteohub,2013-06-23 06:57:00,
2013-06-23 03:02:00,64.2,62.8,30.20,WSW,252,0.0,1.0,95,0.00,,,0.00,0.0,meteohub,2013-06-23 07:02:00,
2013-06-23 03:07:00,64.4,63.0,30.20,WSW,252,0.0,3.0,95,0.00,,,0.00,0.0,meteohub,2013-06-23 07:07:00,
2013-06-23 03:12:00,64.6,63.1,30.20,WSW,247,0.0,3.0,95,0.00,,,0.00,0.0,meteohub,2013-06-23 07:12:00,
2013-06-23 03:17:00,64.6,63.1,30.19,WSW,244,0.0,3.0,95,0.00,,,0.00,0.0,meteohub,2013-06-23 07:17:00,
2013-06-23 03:22:00,64.6,63.1,30.19,WSW,244,0.0,1.0,95,0.00,,,0.00,0.0,meteohub,2013-06-23 07:22:00,
2013-06-23 03:27:00,64.6,63.1,30.19,WSW,244,0.0,1.0,95,0.00,,,0.00,0.0,meteohub,2013-06-23 07:27:00,
2013-06-23 03:32:00,64.6,63.1,30.19,WSW,244,0.0,1.0,95,0.00,,,0.00,0.0,meteohub,2013-06-23 07:32:00,
2013-06-23 03:37:00,64.6,63.1,30.19,SSE,165,0.0,0.0,95,0.00,,,0.00,0.0,meteohub,2013-06-23 07:37:00,
2013-06-23 03:42:00,64.8,63.3,30.19,SW,227,1.0,1.0,95,0.00,,,0.00,0.0,meteohub,2013-06-23 07:42:00,
2013-06-23 03:47:00,64.8,63.3,30.20,SW,227,0.0,3.0,95,0.00,,,0.00,0.0,meteohub,2013-06-23 07:47:00,
2013-06-23 03:52:00,64.6,63.1,30.20,SW,234,2.0,3.0,95,0.00,,,0.00,0.0,meteohub,2013-06-23 07:52:00,
2013-06-23 03:57:00,64.6,63.1,30.19,SSW,195,0.0,3.0,95,0.00,,,0.00,0.0,meteohub,2013-06-23 07:57:00,
2013-06-23 04:02:00,64.6,63.1,30.19,SSW,192,1.0,2.0,95,0.00,,,0.00,0.0,meteohub,2013-06-23 08:02:00,
2013-06-23 04:07:00,64.6,63.1,30.19,SW,219,0.0,3.0,95,0.00,,,0.00,0.0,meteohub,2013-06-23 08:07:00,
2013-06-23 04:12:00,64.6,63.1,30.19,SSE,157,0.0,6.0,95,0.00,,,0.00,0.0,meteohub,2013-06-23 08:12:00,
2013-06-23 04:17:00,64.6,63.1,30.20,SW,215,0.0,6.0,95,0.00,,,0.00,0.0,meteohub,2013-06-23 08:17:00,
2013-06-23 04:22:00,64.6,62.8,30.20,WSW,252,0.0,6.0,94,0.00,,,0.00,0.0,meteohub,2013-06-23 08:22:00,
2013-06-23 04:27:00,64.6,62.8,30.20,South,190,0.0,5.0,94,0.00,,,0.00,0.0,meteohub,2013-06-23 08:27:00,
2013-06-23 04:32:00,64.6,62.8,30.20,South,190,0.0,3.0,94,0.00,,,0.00,0.0,meteohub,2013-06-23 08:32:00,
2013-06-23 04:37:00,64.6,62.8,30.20,SSE,163,0.0,4.0,94,0.00,,,0.00,0.0,meteohub,2013-06-23 08:37:00,
2013-06-23 04:42:00,64.4,62.6,30.20,West,261,0.0,4.0,94,0.00,,,0.00,0.0,meteohub,2013-06-23 08:42:00,
2013-06-23 04:47:00,64.4,62.6,30.20,SSW,204,0.0,4.0,94,0.00,,,0.00,0.0,meteohub,2013-06-23 08:47:00,
2013-06-23 04:52:00,64.2,62.2,30.20,WSW,242,0.0,4.0,93,0.00,,,0.00,0.0,meteohub,2013-06-23 08:52:00,
2013-06-23 04:57:00,64.4,62.4,30.20,SSW,213,1.0,4.0,93,0.00,,,0.00,0.0,meteohub,2013-06-23 08:57:00,
2013-06-23 05:02:00,64.4,62.4,30.20,SW,235,0.0,2.0,93,0.00,,,0.00,0.0,meteohub,2013-06-23 09:02:00,
2013-06-23 05:07:00,64.4,62.4,30.20,SW,235,0.0,2.0,93,0.00,,,0.00,0.0,meteohub,2013-06-23 09:07:00,
2013-06-23 05:12:00,64.6,62.4,30.21,WSW,254,0.0,2.0,93,0.00,,,0.00,0.0,meteohub,2013-06-23 09:12:00,
2013-06-23 05:17:00,64.6,62.2,30.21,SSW,210,0.0,2.0,92,0.00,,,0.00,0.0,meteohub,2013-06-23 09:17:00,
2013-06-23 05:22:00,64.6,62.2,30.20,SSW,210,0.0,4.0,92,0.00,,,0.00,5.0,meteohub,2013-06-23 09:22:00,
2013-06-23 05:27:00,64.6,62.2,30.20,SSW,210,0.0,4.0,92,0.00,,,0.00,7.0,meteohub,2013-06-23 09:27:00,
2013-06-23 05:32:00,64.6,62.2,30.21,SW,222,1.0,2.0,92,0.00,,,0.00,12.0,meteohub,2013-06-23 09:32:00,
2013-06-23 05:37:00,64.6,62.2,30.21,SSW,205,0.0,3.0,92,0.00,,,0.00,16.0,meteohub,2013-06-23 09:37:00,
2013-06-23 05:42:00,64.6,62.2,30.21,SSW,195,0.0,3.0,92,0.00,,,0.00,19.0,meteohub,2013-06-23 09:42:00,
2013-06-23 05:47:00,64.8,62.1,30.20,SE,134,0.0,3.0,91,0.00,,,0.00,25.0,meteohub,2013-06-23 09:47:00,
2013-06-23 05:52:00,64.8,62.1,30.21,SE,134,0.0,3.0,91,0.00,,,0.00,32.0,meteohub,2013-06-23 09:52:00,
2013-06-23 05:57:00,64.9,62.2,30.21,West,262,2.0,3.0,91,0.00,,,0.00,39.0,meteohub,2013-06-23 09:57:00,
2013-06-23 06:02:00,65.1,62.4,30.21,WSW,249,1.0,4.0,91,0.00,,,0.00,49.0,meteohub,2013-06-23 10:02:00,
2013-06-23 06:07:00,65.5,62.4,30.21,WSW,247,0.0,4.0,90,0.00,,,0.00,58.0,meteohub,2013-06-23 10:07:00,
2013-06-23 06:12:00,65.7,62.6,30.21,SW,217,0.0,4.0,90,0.00,,,0.00,69.0,meteohub,2013-06-23 10:12:00,
2013-06-23 06:17:00,65.8,62.8,30.21,West,259,0.0,3.0,90,0.00,,,0.00,79.0,meteohub,2013-06-23 10:17:00,
2013-06-23 06:22:00,66.0,62.6,30.21,SSW,195,0.0,3.0,89,0.00,,,0.00,83.0,meteohub,2013-06-23 10:22:00,
2013-06-23 06:27:00,66.4,63.0,30.21,South,186,0.0,3.0,89,0.00,,,0.00,95.0,meteohub,2013-06-23 10:27:00,
2013-06-23 06:32:00,66.6,63.1,30.21,South,175,1.0,2.0,89,0.00,,,0.00,105.0,meteohub,2013-06-23 10:32:00,
2013-06-23 06:37:00,66.9,63.3,30.21,WNW,297,2.0,4.0,88,0.00,,,0.00,120.0,meteohub,2013-06-23 10:37:00,
2013-06-23 06:42:00,67.1,63.5,30.22,WNW,289,0.0,4.0,88,0.00,,,0.00,134.0,meteohub,2013-06-23 10:42:00,
2013-06-23 06:47:00,67.5,63.9,30.21,SW,215,0.0,5.0,88,0.00,,,0.00,148.0,meteohub,2013-06-23 10:47:00,
2013-06-23 06:52:00,67.6,63.7,30.22,SSW,197,0.0,5.0,87,0.00,,,0.00,156.0,meteohub,2013-06-23 10:52:00,
2013-06-23 06:57:00,67.8,63.9,30.22,SSE,163,2.0,5.0,87,0.00,,,0.00,172.0,meteohub,2013-06-23 10:57:00,
2013-06-23 07:02:00,68.4,64.4,30.22,West,259,1.0,5.0,87,0.00,,,0.00,188.0,meteohub,2013-06-23 11:02:00,
2013-06-23 07:07:00,68.5,64.2,30.22,SW,233,1.0,5.0,86,0.00,,,0.00,192.0,meteohub,2013-06-23 11:07:00,
2013-06-23 07:12:00,68.9,64.6,30.22,SSE,152,1.0,5.0,86,0.00,,,0.00,206.0,meteohub,2013-06-23 11:12:00,
2013-06-23 07:17:00,69.3,64.6,30.22,WSW,244,2.0,5.0,85,0.00,,,0.00,214.0,meteohub,2013-06-23 11:17:00,
2013-06-23 07:22:00,69.4,64.8,30.22,West,263,1.0,5.0,85,0.00,,,0.00,234.0,meteohub,2013-06-23 11:22:00,
2013-06-23 07:27:00,70.0,64.9,30.22,WSW,242,0.0,5.0,84,0.00,,,0.00,251.0,meteohub,2013-06-23 11:27:00,
2013-06-23 07:32:00,70.3,65.3,30.22,SE,136,3.0,5.0,84,0.00,,,0.00,278.0,meteohub,2013-06-23 11:32:00,
2013-06-23 07:37:00,70.5,65.1,30.22,SW,219,1.0,4.0,83,0.00,,,0.00,301.0,meteohub,2013-06-23 11:37:00,
2013-06-23 07:42:00,70.9,65.1,30.22,SW,234,0.0,7.0,82,0.00,,,0.00,313.0,meteohub,2013-06-23 11:42:00,
2013-06-23 07:47:00,71.2,65.5,30.22,SW,218,0.0,7.0,82,0.00,,,0.00,329.0,meteohub,2013-06-23 11:47:00,
2013-06-23 07:52:00,71.4,65.7,30.22,SW,223,0.0,7.0,82,0.00,,,0.00,352.0,meteohub,2013-06-23 11:52:00,
2013-06-23 07:57:00,72.0,65.8,30.22,South,173,4.0,7.0,81,0.00,,,0.00,360.0,meteohub,2013-06-23 11:57:00,
2013-06-23 08:02:00,72.3,66.2,30.22,SSW,202,0.0,7.0,81,0.00,,,0.00,380.0,meteohub,2013-06-23 12:02:00,
2013-06-23 08:07:00,72.7,66.2,30.22,South,183,2.0,4.0,80,0.00,,,0.00,399.0,meteohub,2013-06-23 12:07:00,
2013-06-23 08:12:00,72.7,66.2,30.23,SSW,213,1.0,6.0,80,0.00,,,0.00,417.0,meteohub,2013-06-23 12:12:00,
2013-06-23 08:13:00,72.7,65.8,30.23,SW,231,0.0,6.0,79,0.00,,,0.00,406.0,meteohub,2013-06-23 12:13:00,
2013-06-23 08:22:00,72.9,66.4,30.22,WSW,246,0.0,6.0,80,0.00,,,0.00,438.0,meteohub,2013-06-23 12:22:00,
2013-06-23 08:27:00,73.0,66.2,30.22,SSW,200,0.0,8.0,79,0.00,,,0.00,448.0,meteohub,2013-06-23 12:27:00,
2013-06-23 08:32:00,73.0,66.2,30.23,SSW,213,1.0,8.0,79,0.00,,,0.00,454.0,meteohub,2013-06-23 12:32:00,
2013-06-23 08:37:00,73.2,66.0,30.22,SSE,166,1.0,8.0,78,0.00,,,0.00,469.0,meteohub,2013-06-23 12:37:00,
2013-06-23 08:42:00,73.8,66.4,30.23,West,268,1.0,6.0,78,0.00,,,0.00,478.0,meteohub,2013-06-23 12:42:00,
2013-06-23 08:47:00,73.9,66.2,30.23,WSW,251,2.0,6.0,77,0.00,,,0.00,482.0,meteohub,2013-06-23 12:47:00,
2013-06-23 08:52:00,74.1,66.0,30.23,SW,234,2.0,7.0,76,0.00,,,0.00,522.0,meteohub,2013-06-23 12:52:00,
2013-06-23 08:57:00,74.5,66.4,30.23,SSW,201,1.0,7.0,76,0.00,,,0.00,536.0,meteohub,2013-06-23 12:57:00,
2013-06-23 09:02:00,74.8,66.4,30.22,SSW,196,0.0,7.0,75,0.00,,,0.00,534.0,meteohub,2013-06-23 13:02:00,
2013-06-23 09:07:00,75.4,66.6,30.22,West,271,1.0,5.0,74,0.00,,,0.00,566.0,meteohub,2013-06-23 13:07:00,
2013-06-23 09:12:00,75.7,66.9,30.22,SW,224,0.0,5.0,74,0.00,,,0.00,584.0,meteohub,2013-06-23 13:12:00,
2013-06-23 09:17:00,76.3,66.9,30.22,SSW,202,2.0,5.0,73,0.00,,,0.00,596.0,meteohub,2013-06-23 13:17:00,
2013-06-23 09:22:00,76.6,66.9,30.22,NNE,29,1.0,5.0,72,0.00,,,0.00,624.0,meteohub,2013-06-23 13:22:00,
2013-06-23 09:27:00,76.8,67.1,30.22,SSW,211,2.0,6.0,72,0.00,,,0.00,633.0,meteohub,2013-06-23 13:27:00,
2013-06-23 09:32:00,77.4,67.6,30.22,SW,225,1.0,6.0,72,0.00,,,0.00,636.0,meteohub,2013-06-23 13:32:00,
2013-06-23 09:37:00,77.5,67.8,30.22,SSW,207,0.0,6.0,72,0.00,,,0.00,645.0,meteohub,2013-06-23 13:37:00,
2013-06-23 09:42:00,77.7,67.6,30.22,SSW,210,2.0,7.0,71,0.00,,,0.00,650.0,meteohub,2013-06-23 13:42:00,
2013-06-23 09:47:00,78.1,68.4,30.22,SSW,192,0.0,7.0,72,0.00,,,0.00,650.0,meteohub,2013-06-23 13:47:00,
2013-06-23 09:52:00,78.3,67.6,30.22,SSE,158,0.0,7.0,70,0.00,,,0.00,670.0,meteohub,2013-06-23 13:52:00,
2013-06-23 09:57:00,78.1,67.1,30.22,SSW,209,2.0,6.0,69,0.00,,,0.00,673.0,meteohub,2013-06-23 13:57:00,
2013-06-23 10:00:00,78.1,67.8,30.22,SSE,159,1.0,7.0,71,0.00,,,0.00,698.0,meteohub,2013-06-23 14:00:00,
2013-06-23 10:02:00,78.1,68.4,30.22,South,179,0.0,7.0,72,0.00,,,0.00,701.0,meteohub,2013-06-23 14:02:00,
2013-06-23 10:12:00,78.4,68.7,30.22,SW,217,0.0,7.0,72,0.00,,,0.00,749.0,meteohub,2013-06-23 14:12:00,
2013-06-23 10:17:00,78.8,68.2,30.22,South,182,3.0,5.0,70,0.00,,,0.00,747.0,meteohub,2013-06-23 14:17:00,
2013-06-23 10:22:00,79.0,68.0,30.22,South,184,1.0,5.0,69,0.00,,,0.00,740.0,meteohub,2013-06-23 14:22:00,
2013-06-23 10:27:00,79.2,68.2,30.22,South,173,1.0,7.0,69,0.00,,,0.00,744.0,meteohub,2013-06-23 14:27:00,
2013-06-23 10:32:00,79.3,68.4,30.22,South,173,1.0,7.0,69,0.00,,,0.00,758.0,meteohub,2013-06-23 14:32:00,
2013-06-23 10:37:00,79.3,67.8,30.21,SW,215,1.0,6.0,68,0.00,,,0.00,779.0,meteohub,2013-06-23 14:37:00,
2013-06-23 10:42:00,79.2,67.6,30.21,SE,140,2.0,5.0,68,0.00,,,0.00,802.0,meteohub,2013-06-23 14:42:00,
2013-06-23 10:47:00,78.4,67.8,30.21,SSE,165,2.0,5.0,70,0.00,,,0.00,805.0,meteohub,2013-06-23 14:47:00,
2013-06-23 10:52:00,78.4,68.2,30.21,WNW,288,1.0,6.0,71,0.00,,,0.00,826.0,meteohub,2013-06-23 14:52:00,
2013-06-23 10:57:00,78.1,67.5,30.21,SSW,198,0.0,6.0,70,0.00,,,0.00,821.0,meteohub,2013-06-23 14:57:00,
2013-06-23 11:02:00,78.3,67.6,30.21,ESE,116,1.0,8.0,70,0.00,,,0.00,831.0,meteohub,2013-06-23 15:02:00,
2013-06-23 11:07:00,78.1,67.5,30.21,SSE,163,0.0,8.0,70,0.00,,,0.00,840.0,meteohub,2013-06-23 15:07:00,
2013-06-23 11:12:00,78.3,67.6,30.20,South,173,3.0,8.0,70,0.00,,,0.00,817.0,meteohub,2013-06-23 15:12:00,
2013-06-23 11:17:00,78.3,67.6,30.20,South,170,3.0,6.0,70,0.00,,,0.00,842.0,meteohub,2013-06-23 15:17:00,
2013-06-23 11:22:00,78.3,68.0,30.20,SSW,194,2.0,6.0,71,0.00,,,0.00,835.0,meteohub,2013-06-23 15:22:00,
2013-06-23 11:27:00,78.3,67.6,30.20,SW,216,2.0,6.0,70,0.00,,,0.00,879.0,meteohub,2013-06-23 15:27:00,
2013-06-23 11:35:00,78.1,67.8,30.20,SW,231,1.0,6.0,71,0.00,,,0.00,882.0,meteohub,2013-06-23 15:35:00,
2013-06-23 11:40:00,78.4,68.2,30.21,SSW,205,2.0,8.0,71,0.00,,,0.00,900.0,meteohub,2013-06-23 15:40:00,
2013-06-23 11:45:00,79.0,68.4,30.21,SSW,205,2.0,8.0,70,0.00,,,0.00,919.0,meteohub,2013-06-23 15:45:00,
2013-06-23 11:50:00,79.0,68.7,30.20,SSE,158,2.0,7.0,71,0.00,,,0.00,923.0,meteohub,2013-06-23 15:50:00,
2013-06-23 11:55:00,79.0,68.4,30.21,SSW,196,0.0,11.0,70,0.00,,,0.00,933.0,meteohub,2013-06-23 15:55:00,
2013-06-23 12:01:00,79.2,69.3,30.21,West,259,2.0,11.0,72,0.00,,,0.00,935.0,meteohub,2013-06-23 16:01:00,
2013-06-23 12:06:00,79.3,69.1,30.21,WSW,240,0.0,11.0,71,0.00,,,0.00,937.0,meteohub,2013-06-23 16:06:00,
2013-06-23 12:11:00,79.3,68.7,30.20,WSW,239,2.0,9.0,70,0.00,,,0.00,939.0,meteohub,2013-06-23 16:11:00,
2013-06-23 12:16:00,79.5,68.9,30.20,South,175,2.0,9.0,70,0.00,,,0.00,942.0,meteohub,2013-06-23 16:16:00,
2013-06-23 12:21:00,79.2,68.9,30.20,WSW,246,1.0,10.0,71,0.00,,,0.00,946.0,meteohub,2013-06-23 16:21:00,
2013-06-23 12:27:00,79.2,68.9,30.20,South,169,2.0,10.0,71,0.00,,,0.00,951.0,meteohub,2013-06-23 16:27:00,
2013-06-23 12:32:00,79.0,69.3,30.20,WSW,238,0.0,10.0,72,0.00,,,0.00,953.0,meteohub,2013-06-23 16:32:00,
2013-06-23 12:37:00,79.3,70.0,30.20,NW,306,1.0,6.0,73,0.00,,,0.00,958.0,meteohub,2013-06-23 16:37:00,
2013-06-23 12:42:00,79.9,69.3,30.19,SSW,194,4.0,8.0,70,0.00,,,0.00,963.0,meteohub,2013-06-23 16:42:00,
2013-06-23 12:47:00,79.7,68.5,30.19,SSW,213,3.0,8.0,69,0.00,,,0.00,970.0,meteohub,2013-06-23 16:47:00,
2013-06-23 12:52:00,79.5,68.5,30.19,South,180,3.0,8.0,69,0.00,,,0.00,939.0,meteohub,2013-06-23 16:52:00,
2013-06-23 12:57:00,79.2,67.6,30.19,SSE,162,4.0,7.0,68,0.00,,,0.00,939.0,meteohub,2013-06-23 16:57:00,
2013-06-23 12:59:00,79.0,68.0,30.19,SE,143,2.0,7.0,69,0.00,,,0.00,947.0,meteohub,2013-06-23 16:59:00,
2013-06-23 13:04:00,78.4,68.7,30.19,SSW,210,1.0,7.0,72,0.00,,,0.00,954.0,meteohub,2013-06-23 17:04:00,
2013-06-23 13:09:00,78.1,67.8,30.19,South,184,3.0,8.0,71,0.00,,,0.00,933.0,meteohub,2013-06-23 17:09:00,
2013-06-23 13:14:00,77.7,68.0,30.19,South,173,1.0,10.0,72,0.00,,,0.00,935.0,meteohub,2013-06-23 17:14:00,
2013-06-23 13:19:00,77.7,68.0,30.19,SE,124,6.0,10.0,72,0.00,,,0.00,905.0,meteohub,2013-06-23 17:19:00,
2013-06-23 13:24:00,77.4,67.6,30.19,WSW,252,3.0,13.0,72,0.00,,,0.00,902.0,meteohub,2013-06-23 17:24:00,
2013-06-23 13:29:00,77.4,67.3,30.19,South,178,0.0,13.0,71,0.00,,,0.00,875.0,meteohub,2013-06-23 17:29:00,
2013-06-23 13:34:00,77.2,67.1,30.18,SSE,168,8.0,13.0,71,0.00,,,0.00,860.0,meteohub,2013-06-23 17:34:00,
2013-06-23 13:39:00,77.0,67.3,30.18,SW,220,2.0,8.0,72,0.00,,,0.00,889.0,meteohub,2013-06-23 17:39:00,
2013-06-23 13:44:00,77.4,67.6,30.18,SW,234,0.0,9.0,72,0.00,,,0.00,870.0,meteohub,2013-06-23 17:44:00,
2013-06-23 13:49:00,77.5,68.2,30.18,SSW,197,0.0,9.0,73,0.00,,,0.00,831.0,meteohub,2013-06-23 17:49:00,
2013-06-23 13:54:00,78.3,68.9,30.18,SW,234,0.0,9.0,73,0.00,,,0.00,882.0,meteohub,2013-06-23 17:54:00,
2013-06-23 14:00:00,78.4,68.7,30.18,South,184,0.0,9.0,72,0.00,,,0.00,840.0,meteohub,2013-06-23 18:00:00,
2013-06-23 14:05:00,78.3,68.5,30.18,West,269,3.0,9.0,72,0.00,,,0.00,867.0,meteohub,2013-06-23 18:05:00,
2013-06-23 14:10:00,78.1,68.7,30.18,West,273,2.0,9.0,73,0.00,,,0.00,853.0,meteohub,2013-06-23 18:10:00,
2013-06-23 14:15:00,77.7,68.0,30.18,ESE,103,4.0,9.0,72,0.00,,,0.00,879.0,meteohub,2013-06-23 18:15:00,
2013-06-23 14:20:00,77.4,68.0,30.18,South,177,3.0,9.0,73,0.00,,,0.00,851.0,meteohub,2013-06-23 18:20:00,
2013-06-23 14:25:00,77.4,68.4,30.18,ESE,115,4.0,9.0,74,0.00,,,0.00,889.0,meteohub,2013-06-23 18:25:00,
2013-06-23 14:30:00,77.4,68.0,30.18,SSW,202,0.0,9.0,73,0.00,,,0.00,888.0,meteohub,2013-06-23 18:30:00,
2013-06-23 14:35:00,77.7,68.4,30.18,SE,132,1.0,9.0,73,0.00,,,0.00,884.0,meteohub,2013-06-23 18:35:00,
2013-06-23 14:41:00,78.1,68.7,30.17,SSW,200,1.0,9.0,73,0.00,,,0.00,877.0,meteohub,2013-06-23 18:41:00,
2013-06-23 14:46:00,78.3,68.5,30.17,SW,214,3.0,9.0,72,0.00,,,0.00,872.0,meteohub,2013-06-23 18:46:00,
2013-06-23 14:51:00,78.1,69.1,30.17,South,175,2.0,12.0,74,0.00,,,0.00,856.0,meteohub,2013-06-23 18:51:00,
2013-06-23 14:56:00,78.3,68.9,30.17,SW,224,4.0,12.0,73,0.00,,,0.00,858.0,meteohub,2013-06-23 18:56:00,
2013-06-23 15:01:00,78.3,69.3,30.17,South,174,2.0,12.0,74,0.00,,,0.00,842.0,meteohub,2013-06-23 19:01:00,
2013-06-23 15:06:00,78.1,69.1,30.17,East,96,9.0,10.0,74,0.00,,,0.00,833.0,meteohub,2013-06-23 19:06:00,
2013-06-23 15:11:00,77.5,69.4,30.17,ESE,112,8.0,10.0,76,0.00,,,0.00,821.0,meteohub,2013-06-23 19:11:00,
2013-06-23 15:17:00,77.7,69.6,30.17,SE,124,2.0,10.0,76,0.00,,,0.00,812.0,meteohub,2013-06-23 19:17:00,
2013-06-23 15:22:00,78.3,69.6,30.17,South,190,5.0,10.0,75,0.00,,,0.00,798.0,meteohub,2013-06-23 19:22:00,
2013-06-23 15:27:00,77.9,69.8,30.17,SW,218,2.0,13.0,76,0.00,,,0.00,784.0,meteohub,2013-06-23 19:27:00,
2013-06-23 15:32:00,77.9,70.2,30.17,SSE,165,3.0,13.0,77,0.00,,,0.00,766.0,meteohub,2013-06-23 19:32:00,
2013-06-23 15:37:00,78.1,70.0,30.17,SW,216,4.0,13.0,76,0.00,,,0.00,754.0,meteohub,2013-06-23 19:37:00,
2013-06-23 15:42:00,78.1,70.0,30.16,SSW,198,1.0,12.0,76,0.00,,,0.00,703.0,meteohub,2013-06-23 19:42:00,
2013-06-23 15:47:00,78.3,70.5,30.16,West,274,2.0,12.0,77,0.00,,,0.00,715.0,meteohub,2013-06-23 19:47:00,
2013-06-23 15:52:00,78.3,70.0,30.16,SW,235,2.0,11.0,76,0.00,,,0.00,698.0,meteohub,2013-06-23 19:52:00,
2013-06-23 15:57:00,77.9,70.5,30.16,South,185,3.0,10.0,78,0.00,,,0.00,689.0,meteohub,2013-06-23 19:57:00,
2013-06-23 16:02:00,77.7,70.0,30.16,SSW,196,1.0,10.0,77,0.00,,,0.00,682.0,meteohub,2013-06-23 20:02:00,
2013-06-23 16:07:00,77.5,70.2,30.16,ENE,67,0.0,10.0,78,0.00,,,0.00,682.0,meteohub,2013-06-23 20:07:00,
2013-06-23 16:12:00,76.8,69.4,30.16,SE,135,4.0,10.0,78,0.00,,,0.00,670.0,meteohub,2013-06-23 20:12:00,
2013-06-23 16:17:00,76.3,69.6,30.16,South,174,3.0,10.0,80,0.00,,,0.00,664.0,meteohub,2013-06-23 20:17:00,
2013-06-23 16:22:00,75.9,69.3,30.16,SSW,212,6.0,10.0,80,0.00,,,0.00,661.0,meteohub,2013-06-23 20:22:00,
2013-06-23 16:27:00,76.3,70.0,30.16,SW,218,3.0,10.0,81,0.00,,,0.00,649.0,meteohub,2013-06-23 20:27:00,
2013-06-23 16:32:00,76.5,69.8,30.16,SSW,206,2.0,10.0,80,0.00,,,0.00,654.0,meteohub,2013-06-23 20:32:00,
2013-06-23 16:37:00,76.3,69.6,30.16,SW,220,1.0,11.0,80,0.00,,,0.00,666.0,meteohub,2013-06-23 20:37:00,
2013-06-23 16:42:00,75.9,69.6,30.16,SSE,157,3.0,11.0,81,0.00,,,0.00,638.0,meteohub,2013-06-23 20:42:00,
2013-06-23 16:47:00,75.7,69.4,30.16,NW,318,2.0,13.0,81,0.00,,,0.00,603.0,meteohub,2013-06-23 20:47:00,
2013-06-23 16:52:00,75.7,69.8,30.16,SSW,207,2.0,13.0,82,0.00,,,0.00,596.0,meteohub,2013-06-23 20:52:00,
2013-06-23 16:57:00,75.6,69.6,30.16,SE,142,7.0,11.0,82,0.00,,,0.00,563.0,meteohub,2013-06-23 20:57:00,
2013-06-23 17:03:00,75.7,69.8,30.15,SSW,213,3.0,11.0,82,0.00,,,0.00,547.0,meteohub,2013-06-23 21:03:00,
2013-06-23 17:08:00,76.1,69.8,30.15,South,185,3.0,10.0,81,0.00,,,0.00,533.0,meteohub,2013-06-23 21:08:00,
2013-06-23 17:13:00,76.3,70.0,30.15,SSW,202,1.0,9.0,81,0.00,,,0.00,515.0,meteohub,2013-06-23 21:13:00,
2013-06-23 17:18:00,76.3,70.3,30.14,SW,223,2.0,9.0,82,0.00,,,0.00,501.0,meteohub,2013-06-23 21:18:00,
2013-06-23 17:23:00,76.3,70.0,30.14,SSW,193,2.0,8.0,81,0.00,,,0.00,485.0,meteohub,2013-06-23 21:23:00,
2013-06-23 17:28:00,76.3,70.3,30.14,SSW,192,1.0,9.0,82,0.00,,,0.00,471.0,meteohub,2013-06-23 21:28:00,
2013-06-23 17:33:00,76.6,70.3,30.14,WNW,287,1.0,9.0,81,0.00,,,0.00,455.0,meteohub,2013-06-23 21:33:00,
2013-06-23 17:38:00,76.6,70.3,30.14,SSW,192,1.0,9.0,81,0.00,,,0.00,446.0,meteohub,2013-06-23 21:38:00,
2013-06-23 17:43:00,76.6,70.7,30.13,SSW,200,3.0,9.0,82,0.00,,,0.00,401.0,meteohub,2013-06-23 21:43:00,
2013-06-23 17:48:00,76.6,70.7,30.13,SW,223,6.0,9.0,82,0.00,,,0.00,160.0,meteohub,2013-06-23 21:48:00,
2013-06-23 17:53:00,76.5,70.9,30.13,SW,217,0.0,9.0,83,0.00,,,0.00,179.0,meteohub,2013-06-23 21:53:00,
2013-06-23 17:58:00,76.1,70.5,30.13,South,184,4.0,10.0,83,0.00,,,0.00,406.0,meteohub,2013-06-23 21:58:00,
2013-06-23 18:03:00,75.6,70.3,30.13,South,173,6.0,10.0,84,0.00,,,0.00,346.0,meteohub,2013-06-23 22:03:00,
2013-06-23 18:08:00,75.0,69.8,30.13,SSW,207,1.0,11.0,84,0.00,,,0.00,376.0,meteohub,2013-06-23 22:08:00,
2013-06-23 18:13:00,75.0,70.2,30.14,West,271,2.0,11.0,85,0.00,,,0.00,360.0,meteohub,2013-06-23 22:13:00,
2013-06-23 18:19:00,74.8,70.0,30.14,South,188,0.0,11.0,85,0.00,,,0.00,313.0,meteohub,2013-06-23 22:19:00,
2013-06-23 18:24:00,74.8,70.0,30.14,South,184,2.0,8.0,85,0.00,,,0.00,163.0,meteohub,2013-06-23 22:24:00,
2013-06-23 18:29:00,74.7,69.8,30.14,SW,233,3.0,8.0,85,0.00,,,0.00,274.0,meteohub,2013-06-23 22:29:00,
2013-06-23 18:34:00,74.3,69.8,30.14,WSW,238,2.0,8.0,86,0.00,,,0.00,179.0,meteohub,2013-06-23 22:34:00,
2013-06-23 18:39:00,73.9,69.4,30.14,South,182,2.0,9.0,86,0.00,,,0.00,116.0,meteohub,2013-06-23 22:39:00,
2013-06-23 18:44:00,73.9,69.4,30.14,SSE,167,1.0,9.0,86,0.00,,,0.00,137.0,meteohub,2013-06-23 22:44:00,
2013-06-23 18:49:00,73.4,69.3,30.14,SSW,213,7.0,9.0,87,0.00,,,0.00,127.0,meteohub,2013-06-23 22:49:00,
2013-06-23 18:54:00,73.0,68.9,30.13,SW,223,1.0,10.0,87,0.00,,,0.00,114.0,meteohub,2013-06-23 22:54:00,
2013-06-23 19:00:00,72.9,69.1,30.13,WNW,283,4.0,11.0,88,0.00,,,0.00,186.0,meteohub,2013-06-23 23:00:00,
2013-06-23 19:05:00,72.7,68.9,30.13,SW,228,2.0,11.0,88,0.00,,,0.00,199.0,meteohub,2013-06-23 23:05:00,
2013-06-23 19:10:00,72.7,68.9,30.13,South,184,1.0,11.0,88,0.00,,,0.00,104.0,meteohub,2013-06-23 23:10:00,
2013-06-23 19:15:00,72.5,69.1,30.13,SSW,207,1.0,7.0,89,0.00,,,0.00,86.0,meteohub,2013-06-23 23:15:00,
2013-06-23 19:20:00,72.3,68.9,30.13,WSW,237,4.0,9.0,89,0.00,,,0.00,44.0,meteohub,2013-06-23 23:20:00,
2013-06-23 19:25:00,72.3,68.9,30.13,SW,231,0.0,10.0,89,0.00,,,0.00,72.0,meteohub,2013-06-23 23:25:00,
2013-06-23 19:30:00,72.1,68.7,30.13,South,190,3.0,10.0,89,0.00,,,0.00,70.0,meteohub,2013-06-23 23:30:00,
2013-06-23 19:35:00,72.0,68.9,30.13,NW,316,2.0,8.0,90,0.00,,,0.00,49.0,meteohub,2013-06-23 23:35:00,
2013-06-23 19:41:00,71.8,68.7,30.13,East,94,6.0,8.0,90,0.00,,,0.00,39.0,meteohub,2013-06-23 23:41:00,
2013-06-23 19:46:00,71.6,68.5,30.13,SW,230,0.0,11.0,90,0.00,,,0.00,37.0,meteohub,2013-06-23 23:46:00,
2013-06-23 19:51:00,71.2,68.5,30.13,SE,142,2.0,11.0,91,0.00,,,0.00,18.0,meteohub,2013-06-23 23:51:00,
2013-06-23 19:56:00,71.1,68.4,30.13,SE,130,7.0,8.0,91,0.00,,,0.00,16.0,meteohub,2013-06-23 23:56:00,
2013-06-23 20:01:00,70.9,68.2,30.13,SSE,168,1.0,8.0,91,0.00,,,0.00,16.0,meteohub,2013-06-24 00:01:00,
2013-06-23 20:06:00,70.9,68.4,30.13,SE,139,2.0,12.0,92,0.00,,,0.00,18.0,meteohub,2013-06-24 00:06:00,
2013-06-23 20:11:00,70.9,68.4,30.13,SSW,201,1.0,12.0,92,0.00,,,0.00,12.0,meteohub,2013-06-24 00:11:00,
2013-06-23 20:16:00,70.7,68.2,30.13,West,262,2.0,12.0,92,0.00,,,0.00,7.0,meteohub,2013-06-24 00:16:00,
2013-06-23 20:21:00,70.7,68.2,30.12,SSE,152,1.0,7.0,92,0.00,,,0.00,0.0,meteohub,2013-06-24 00:21:00,
2013-06-23 20:26:00,70.7,68.2,30.13,WSW,252,0.0,9.0,92,0.00,,,0.00,0.0,meteohub,2013-06-24 00:26:00,
2013-06-23 20:31:00,70.5,68.0,30.13,WSW,250,0.0,9.0,92,0.00,,,0.00,0.0,meteohub,2013-06-24 00:31:00,
2013-06-23 20:36:00,70.5,68.4,30.13,SSW,196,4.0,9.0,93,0.00,,,0.00,0.0,meteohub,2013-06-24 00:36:00,
2013-06-23 20:41:00,70.5,68.0,30.13,SSW,202,4.0,9.0,92,0.00,,,0.00,0.0,meteohub,2013-06-24 00:41:00,
2013-06-23 20:46:00,70.5,68.4,30.13,West,275,2.0,9.0,93,0.00,,,0.00,0.0,meteohub,2013-06-24 00:46:00,
2013-06-23 20:51:00,70.5,68.4,30.13,South,182,3.0,7.0,93,0.00,,,0.00,0.0,meteohub,2013-06-24 00:51:00,
2013-06-23 20:57:00,70.5,68.4,30.13,SW,219,0.0,7.0,93,0.00,,,0.00,0.0,meteohub,2013-06-24 00:57:00,
2013-06-23 21:02:00,70.3,68.2,30.13,SSW,209,1.0,8.0,93,0.00,,,0.00,0.0,meteohub,2013-06-24 01:02:00,
2013-06-23 21:07:00,70.3,68.2,30.13,WSW,246,3.0,8.0,93,0.00,,,0.00,0.0,meteohub,2013-06-24 01:07:00,
2013-06-23 21:12:00,70.2,68.0,30.13,WSW,241,4.0,8.0,93,0.00,,,0.00,0.0,meteohub,2013-06-24 01:12:00,
2013-06-23 21:17:00,70.2,68.0,30.13,SSE,167,1.0,8.0,93,0.00,,,0.00,0.0,meteohub,2013-06-24 01:17:00,
2013-06-23 21:22:00,70.2,68.0,30.13,SSE,163,1.0,8.0,93,0.00,,,0.00,0.0,meteohub,2013-06-24 01:22:00,
2013-06-23 21:27:00,70.2,68.0,30.13,SSW,200,1.0,8.0,93,0.00,,,0.00,0.0,meteohub,2013-06-24 01:27:00,
2013-06-23 21:32:00,70.2,68.0,30.13,South,184,2.0,7.0,93,0.00,,,0.00,0.0,meteohub,2013-06-24 01:32:00,
2013-06-23 21:37:00,70.0,68.2,30.14,SW,215,3.0,10.0,94,0.00,,,0.00,0.0,meteohub,2013-06-24 01:37:00,
2013-06-23 21:42:00,70.2,68.4,30.14,WNW,295,1.0,10.0,94,0.00,,,0.00,0.0,meteohub,2013-06-24 01:42:00,
2013-06-23 21:47:00,70.2,68.4,30.14,South,185,3.0,10.0,94,0.00,,,0.00,0.0,meteohub,2013-06-24 01:47:00,
2013-06-23 21:52:00,70.0,68.2,30.14,SSE,163,0.0,7.0,94,0.00,,,0.00,0.0,meteohub,2013-06-24 01:52:00,
2013-06-23 21:57:00,70.0,68.2,30.14,SW,221,8.0,13.0,94,0.00,,,0.00,0.0,meteohub,2013-06-24 01:57:00,
2013-06-23 22:02:00,69.8,68.0,30.14,ESE,111,2.0,13.0,94,0.00,,,0.00,0.0,meteohub,2013-06-24 02:02:00,
2013-06-23 22:07:00,69.6,67.8,30.14,SW,235,4.0,8.0,94,0.00,,,0.00,0.0,meteohub,2013-06-24 02:07:00,
2013-06-23 22:12:00,69.6,67.8,30.13,South,185,4.0,8.0,94,0.00,,,0.00,0.0,meteohub,2013-06-24 02:12:00,
2013-06-23 22:17:00,69.6,67.8,30.13,SSE,167,2.0,7.0,94,0.00,,,0.00,0.0,meteohub,2013-06-24 02:17:00,
2013-06-23 22:22:00,69.6,67.8,30.13,South,191,3.0,9.0,94,0.00,,,0.00,0.0,meteohub,2013-06-24 02:22:00,
2013-06-23 22:27:00,69.6,67.8,30.13,SW,234,3.0,9.0,94,0.00,,,0.00,0.0,meteohub,2013-06-24 02:27:00,
2013-06-23 22:32:00,69.6,67.8,30.14,South,186,0.0,9.0,94,0.00,,,0.00,0.0,meteohub,2013-06-24 02:32:00,
2013-06-23 22:37:00,69.6,67.8,30.13,West,275,5.0,7.0,94,0.00,,,0.00,0.0,meteohub,2013-06-24 02:37:00,
2013-06-23 22:42:00,69.6,68.2,30.13,SSE,150,1.0,9.0,95,0.00,,,0.00,0.0,meteohub,2013-06-24 02:42:00,
2013-06-23 22:47:00,69.6,68.2,30.14,WNW,294,2.0,9.0,95,0.00,,,0.00,0.0,meteohub,2013-06-24 02:47:00,
2013-06-23 22:52:00,69.8,68.4,30.13,South,182,4.0,9.0,95,0.00,,,0.00,0.0,meteohub,2013-06-24 02:52:00,
2013-06-23 22:57:00,69.8,68.0,30.14,SSW,196,1.0,7.0,94,0.00,,,0.00,0.0,meteohub,2013-06-24 02:57:00,
2013-06-23 23:02:00,70.0,68.2,30.14,SSW,192,3.0,7.0,94,0.00,,,0.00,0.0,meteohub,2013-06-24 03:02:00,
2013-06-23 23:07:00,70.0,68.2,30.14,SSW,205,1.0,6.0,94,0.00,,,0.00,0.0,meteohub,2013-06-24 03:07:00,
2013-06-23 23:12:00,70.0,68.2,30.14,SSW,200,0.0,8.0,94,0.00,,,0.00,0.0,meteohub,2013-06-24 03:12:00,
2013-06-23 23:17:00,70.0,68.2,30.14,WSW,257,2.0,8.0,94,0.00,,,0.00,0.0,meteohub,2013-06-24 03:17:00,
2013-06-23 23:22:00,70.0,68.2,30.13,WSW,246,0.0,8.0,94,0.00,,,0.00,0.0,meteohub,2013-06-24 03:22:00,
2013-06-23 23:27:00,70.0,68.2,30.14,SW,236,0.0,5.0,94,0.00,,,0.00,0.0,meteohub,2013-06-24 03:27:00,
2013-06-23 23:32:00,70.2,68.4,30.13,SSE,150,1.0,5.0,94,0.00,,,0.00,0.0,meteohub,2013-06-24 03:32:00,
2013-06-23 23:37:00,70.2,68.4,30.13,SSE,159,3.0,4.0,94,0.00,,,0.00,0.0,meteohub,2013-06-24 03:37:00,
2013-06-23 23:42:00,70.2,68.4,30.13,ESE,118,2.0,5.0,94,0.00,,,0.00,0.0,meteohub,2013-06-24 03:42:00,
2013-06-23 23:47:00,70.2,68.4,30.13,SE,144,0.0,8.0,94,0.00,,,0.00,0.0,meteohub,2013-06-24 03:47:00,
2013-06-23 23:52:00,70.2,68.4,30.13,NNW,348,1.0,8.0,94,0.00,,,0.00,0.0,meteohub,2013-06-24 03:52:00,
2013-06-23 23:57:00,70.2,68.4,30.13,South,174,1.0,8.0,94,0.00,,,0.00,0.0,meteohub,2013-06-24 03:57:00,